EW8737 Weather Reports


Display with metric or nautical units.
time (UTC)temp
F
wind
direction
speed
MPH
gust
MPH
rain 1hr
in
rain 24hr
in
rain mn
in
humidity
%
barometer
mb
20190318201745 71 128 3.0 13.0 0.00 0.00 0.00 23 1022.8
20190318201238 70 133 1.0 10.0 0.00 0.00 0.00 23 1022.8
20190318200734 70 121 4.0 13.0 0.00 0.00 0.00 25 1022.8
20190318200233 70 118 4.0 13.0 0.00 0.00 0.00 23 1023.1
20190318195726 70 102 3.0 13.0 0.00 0.00 0.00 23 1023.1
20190318195222 70 145 4.0 13.0 0.00 0.00 0.00 23 1022.8
20190318194722 70 74 6.0 13.0 0.00 0.00 0.00 23 1023.1
20190318194214 70 114 2.0 10.0 0.00 0.00 0.00 22 1023.4
20190318193710 70 70 4.0 15.0 0.00 0.00 0.00 23 1023.4
20190318193210 70 76 3.0 15.0 0.00 0.00 0.00 23 1023.1
20190318192703 70 94 6.0 13.0 0.00 0.00 0.00 22 1023.4
20190318192159 70 101 2.0 13.0 0.00 0.00 0.00 23 1023.4
20190318191658 70 98 9.0 13.0 0.00 0.00 0.00 22 1023.4
20190318191151 69 123 2.0 10.0 0.00 0.00 0.00 23 1023.4
20190318190647 69 76 6.0 10.0 0.00 0.00 0.00 24 1023.8
20190318190146 69 142 2.0 10.0 0.00 0.00 0.00 22 1023.8
20190318185641 69 77 5.0 13.0 0.00 0.00 0.00 24 1023.8
20190318185135 68 88 9.0 13.0 0.00 0.00 0.00 24 1024.1
20190318184634 68 88 7.0 13.0 0.00 0.00 0.00 22 1024.5
20190318184128 68 104 6.0 13.0 0.00 0.00 0.00 23 1024.5
20190318183623 68 100 2.0 13.0 0.00 0.00 0.00 23 1024.5
20190318183124 68 120 3.0 13.0 0.00 0.00 0.00 23 1024.5
20190318182616 68 69 2.0 10.0 0.00 0.00 0.00 24 1024.5
20190318182112 67 92 4.0 10.0 0.00 0.00 0.00 22 1024.5
20190318181611 67 104 5.0 13.0 0.00 0.00 0.00 24 1024.5
20190318181104 67 96 3.0 13.0 0.00 0.00 0.00 24 1024.5
20190318180600 67 70 8.0 13.0 0.00 0.00 0.00 24 1024.8
20190318180100 67 97 5.0 10.0 0.00 0.00 0.00 24 1024.8
20190318175553 67 118 3.0 10.0 0.00 0.00 0.00 24 1025.1
20190318175049 67 149 2.0 10.0 0.00 0.00 0.00 24 1024.8
20190318174549 67 108 4.0 10.0 0.00 0.00 0.00 24 1024.8
20190318174041 67 125 2.0 10.0 0.00 0.00 0.00 25 1024.5
20190318173537 67 98 5.0 8.0 0.00 0.00 0.00 25 1024.8
20190318173037 67 130 3.0 8.0 0.00 0.00 0.00 25 1024.8
20190318172529 67 93 1.0 10.0 0.00 0.00 0.00 26 1024.8
20190318172026 67 109 1.0 10.0 0.00 0.00 0.00 25 1024.8
20190318171526 67 125 3.0 8.0 0.00 0.00 0.00 25 1024.8
20190318171018 67 105 0.0 10.0 0.00 0.00 0.00 25 1024.8
20190318170515 67 94 4.0 13.0 0.00 0.00 0.00 28 1025.1
20190318170014 66 84 5.0 13.0 0.00 0.00 0.00 27 1025.1
20190318165507 65 117 4.0 10.0 0.00 0.00 0.00 27 1025.1
20190318165002 65 126 2.0 10.0 0.00 0.00 0.00 28 1024.8
20190318164502 65 124 2.0 8.0 0.00 0.00 0.00 28 1025.1
20190318163955 65 136 2.0 13.0 0.00 0.00 0.00 30 1025.1
20190318163451 64 133 4.0 13.0 0.00 0.00 0.00 32 1025.1
20190318162950 64 114 7.0 13.0 0.00 0.00 0.00 29 1024.8
20190318162443 64 96 4.0 10.0 0.00 0.00 0.00 29 1025.1
20190318161940 63 8 0.0 10.0 0.00 0.00 0.00 32 1025.1
20190318161439 63 122 2.0 10.0 0.00 0.00 0.00 30 1025.1
20190318160931 62 107 2.0 10.0 0.00 0.00 0.00 32 1025.1
20190318160427 62 93 3.0 10.0 0.00 0.00 0.00 34 1025.1
20190318155927 62 95 7.0 10.0 0.00 0.00 0.00 34 1025.1
20190318155420 61 111 2.0 10.0 0.00 0.00 0.00 35 1025.5
20190318154916 61 118 8.0 10.0 0.00 0.00 0.00 39 1025.1
20190318154416 60 118 2.0 8.0 0.00 0.00 0.00 39 1025.1
20190318153909 60 117 4.0 8.0 0.00 0.00 0.00 41 1025.5
20190318153404 60 109 1.0 8.0 0.00 0.00 0.00 42 1025.1
20190318152904 59 143 2.0 8.0 0.00 0.00 0.00 46 1025.1
20190318152357 58 139 2.0 8.0 0.00 0.00 0.00 50 1025.1
20190318151853 58 129 1.0 8.0 0.00 0.00 0.00 51 1025.1
20190318151353 58 120 1.0 8.0 0.00 0.00 0.00 51 1025.1
20190318150845 57 138 1.0 5.0 0.00 0.00 0.00 54 1025.1
20190318150341 57 99 0.0 5.0 0.00 0.00 0.00 54 1025.1
20190318145842 57 139 0.0 5.0 0.00 0.00 0.00 55 1025.1
20190318145334 56 129 0.0 5.0 0.00 0.00 0.00 57 1024.8
20190318144829 56 113 2.0 5.0 0.00 0.00 0.00 57 1024.8
20190318144338 55 134 1.0 5.0 0.00 0.00 0.00 59 1024.8
20190318143822 55 121 0.0 5.0 0.00 0.00 0.00 59 1024.8
20190318143318 54 209 0.0 2.0 0.00 0.00 0.00 63 1024.8
20190318142820 54 209 0.0 2.0 0.00 0.00 0.00 64 1024.5
20190318142311 53 92 0.0 2.0 0.00 0.00 0.00 66 1024.5
20190318141813 53 92 0.0 2.0 0.00 0.00 0.00 68 1024.8
20190318141306 53 92 0.0 5.0 0.00 0.00 0.00 69 1024.5
20190318140813 52 220 0.0 5.0 0.00 0.00 0.00 70 1024.5
20190318140255 51 211 0.0 2.0 0.00 0.00 0.00 70 1024.5
20190318135809 51 135 0.0 2.0 0.00 0.00 0.00 72 1024.5
20190318135247 50 219 0.0 0.0 0.00 0.00 0.00 75 1024.5
20190318134743 50 218 0.0 0.0 0.00 0.00 0.00 77 1024.5
20190318134327 49 218 0.0 0.0 0.00 0.00 0.00 78 1024.1
20190318133735 49 210 0.0 0.0 0.00 0.00 0.00 77 1024.1
20190318133232 49 199 0.0 0.0 0.00 0.00 0.00 78 1024.1
20190318132731 49 199 0.0 2.0 0.00 0.00 0.00 78 1024.1
20190318132224 49 199 0.0 2.0 0.00 0.00 0.00 78 1023.8
20190318131720 48 199 0.0 0.0 0.00 0.00 0.00 79 1023.8
20190318131219 48 198 0.0 2.0 0.00 0.00 0.00 79 1023.4
20190318130712 48 198 0.0 2.0 0.00 0.00 0.00 79 1023.4
20190318130209 47 198 0.0 2.0 0.00 0.00 0.00 79 1023.4
20190318125708 47 197 0.0 0.0 0.00 0.00 0.00 79 1023.4
20190318125200 47 197 0.0 2.0 0.00 0.00 0.00 81 1023.4
20190318124656 47 197 0.0 2.0 0.00 0.00 0.00 80 1023.1
20190318124157 47 197 0.0 0.0 0.00 0.00 0.00 80 1023.4
20190318123657 46 197 0.0 0.0 0.00 0.00 0.00 80 1023.1
20190318123145 46 197 0.0 0.0 0.00 0.00 0.00 79 1023.1
20190318122642 46 197 0.0 2.0 0.00 0.00 0.00 79 1023.1
20190318122139 46 197 0.0 2.0 0.00 0.00 0.00 81 1023.1
20190318121645 46 197 0.0 0.0 0.00 0.00 0.00 83 1023.1
20190318121129 45 197 0.0 0.0 0.00 0.00 0.00 83 1022.8
20190318120623 45 197 0.0 0.0 0.00 0.00 0.00 83 1022.8
20190318120118 45 197 0.0 0.0 0.00 0.00 0.00 83 1022.8
20190318115617 45 197 0.0 0.0 0.00 0.00 0.00 82 1022.8
20190318115110 45 197 0.0 0.0 0.00 0.00 0.00 82 1022.8
20190318114605 45 197 0.0 0.0 0.00 0.00 0.00 81 1022.8
20190318114105 45 197 0.0 0.0 0.00 0.00 0.00 80 1022.8
20190318113557 45 197 0.0 0.0 0.00 0.00 0.00 79 1022.8
20190318113054 46 197 0.0 0.0 0.00 0.00 0.00 79 1022.8
20190318112556 46 197 0.0 0.0 0.00 0.00 0.00 79 1022.8
20190318112044 46 197 0.0 0.0 0.00 0.00 0.00 79 1022.8
20190318111539 45 197 0.0 0.0 0.00 0.00 0.00 80 1022.4
20190318111049 45 197 0.0 0.0 0.00 0.00 0.00 79 1022.4
20190318110533 45 197 0.0 0.0 0.00 0.00 0.00 79 1022.8
20190318110027 45 197 0.0 2.0 0.00 0.00 0.00 80 1022.8
20190318105525 45 197 0.0 2.0 0.00 0.00 0.00 83 1022.4
20190318105016 45 197 0.0 2.0 0.00 0.00 0.00 86 1022.4
20190318104511 45 196 0.0 0.0 0.00 0.00 0.00 86 1022.4
20190318104011 45 197 0.0 0.0 0.00 0.00 0.00 85 1022.4
20190318103502 45 197 0.0 0.0 0.00 0.00 0.00 85 1022.4
20190318102959 45 197 0.0 0.0 0.00 0.00 0.00 86 1022.4
20190318102458 45 197 0.0 0.0 0.00 0.00 0.00 87 1022.4
20190318101951 45 197 0.0 0.0 0.00 0.00 0.00 88 1022.8
20190318101445 46 197 0.0 0.0 0.00 0.00 0.00 88 1022.4
20190318100948 46 197 0.0 0.0 0.00 0.00 0.00 88 1022.4
20190318100436 46 197 0.0 0.0 0.00 0.00 0.00 87 1022.4
20190318095932 46 197 0.0 0.0 0.00 0.00 0.00 87 1022.4
20190318095431 47 197 0.0 0.0 0.00 0.00 0.00 86 1022.4
20190318094921 47 197 0.0 0.0 0.00 0.00 0.00 84 1022.4
20190318094417 47 197 0.0 0.0 0.00 0.00 0.00 83 1022.4
20190318093916 48 197 0.0 0.0 0.00 0.00 0.00 82 1022.4
20190318093409 48 197 0.0 0.0 0.00 0.00 0.00 82 1022.4
20190318092905 48 197 0.0 2.0 0.00 0.00 0.00 82 1022.4
20190318092406 48 197 0.0 2.0 0.00 0.00 0.00 82 1022.4
20190318091858 48 197 0.0 2.0 0.00 0.00 0.00 82 1022.4
20190318091353 48 197 0.0 2.0 0.00 0.00 0.00 83 1022.4
20190318090854 47 197 0.0 2.0 0.00 0.00 0.00 83 1022.4
20190318090346 47 197 0.0 2.0 0.00 0.00 0.00 85 1022.4
20190318085841 47 197 0.0 2.0 0.00 0.00 0.00 88 1022.4
20190318085340 47 197 0.0 0.0 0.00 0.00 0.00 88 1022.8
20190318084831 47 197 0.0 0.0 0.00 0.00 0.00 88 1022.8
20190318084327 48 197 0.0 0.0 0.00 0.00 0.00 88 1023.1
20190318083827 48 197 0.0 0.0 0.00 0.00 0.00 87 1022.4
20190318083320 48 197 0.0 0.0 0.00 0.00 0.00 88 1022.8
20190318082815 48 197 0.0 2.0 0.00 0.00 0.00 90 1022.8
20190318082314 48 197 0.0 2.0 0.00 0.00 0.00 93 1023.1
20190318081806 48 197 1.0 2.0 0.00 0.00 0.00 94 1022.8
20190318081302 48 160 0.0 2.0 0.00 0.00 0.00 96 1023.1
20190318080801 48 160 0.0 0.0 0.00 0.00 0.00 96 1023.1
20190318080253 48 160 0.0 0.0 0.00 0.00 0.00 96 1023.1
20190318075749 48 160 0.0 0.0 0.00 0.00 0.00 96 1022.8
20190318075248 48 160 0.0 0.0 0.00 0.00 0.00 96 1023.1
20190318074741 49 160 0.0 0.0 0.00 0.00 0.00 96 1023.1
20190318074237 49 160 0.0 0.0 0.00 0.00 0.00 95 1023.1
20190318073737 49 160 0.0 0.0 0.00 0.00 0.00 95 1023.4
20190318073229 49 160 0.0 0.0 0.00 0.00 0.00 96 1023.1
20190318072723 49 160 0.0 0.0 0.00 0.00 0.00 96 1023.1
20190318072222 48 160 0.0 0.0 0.00 0.00 0.00 96 1023.1
20190318071715 48 160 0.0 0.0 0.00 0.00 0.00 95 1023.1
20190318071209 48 160 0.0 0.0 0.00 0.00 0.00 95 1023.1
20190318070726 48 160 0.0 0.0 0.00 0.00 0.00 95 1023.1
20190318070201 48 160 0.0 0.0 0.00 0.00 0.00 95 1023.1
20190318065719 48 160 0.0 0.0 0.00 0.00 0.00 95 1023.4
20190318065203 48 160 0.0 0.0 0.00 0.00 0.00 95 1023.1
20190318064657 48 160 0.0 0.0 0.00 0.00 0.00 94 1023.1
20190318064146 48 160 0.0 0.0 0.00 0.00 0.00 94 1023.4
20190318063646 48 160 0.0 0.0 0.00 0.00 0.00 93 1023.4
20190318063137 48 160 0.0 0.0 0.00 0.00 0.00 94 1023.4
20190318062632 48 160 0.0 0.0 0.00 0.00 0.00 94 1023.1
20190318062135 48 160 0.0 0.0 0.00 0.00 0.00 93 1023.4
20190318061647 49 160 0.0 0.0 0.00 0.00 0.00 92 1023.4
20190318061120 49 160 0.0 0.0 0.00 0.00 0.00 92 1023.4
20190318060619 49 160 0.0 0.0 0.00 0.00 0.00 92 1023.4
20190318060113 49 160 0.0 0.0 0.00 0.00 0.00 92 1023.1
20190318055607 49 160 0.0 0.0 0.00 0.00 0.00 92 1023.1
20190318055106 49 160 0.0 0.0 0.00 0.00 0.00 92 1023.1
20190318054559 49 160 0.0 0.0 0.00 0.00 0.00 92 1023.4
20190318054053 49 160 0.0 0.0 0.00 0.00 0.00 92 1023.4
20190318053553 49 160 0.0 0.0 0.00 0.00 0.00 91 1023.4
20190318053045 49 160 0.0 0.0 0.00 0.00 0.00 91 1023.4
20190318052540 49 160 0.0 0.0 0.00 0.00 0.00 91 1023.4
20190318052040 49 160 0.0 0.0 0.00 0.00 0.00 91 1023.4
20190318051531 49 160 0.0 0.0 0.00 0.00 0.00 90 1023.4
20190318051026 49 160 0.0 0.0 0.00 0.00 0.00 90 1023.4
20190318050526 49 160 0.0 0.0 0.00 0.00 0.00 90 1023.4
20190318050018 49 160 0.0 0.0 0.00 0.00 0.00 90 1023.4
20190318045514 49 160 0.0 0.0 0.00 0.00 0.00 91 1023.4
20190318045014 49 160 0.0 0.0 0.00 0.00 0.00 90 1023.4
20190318044505 49 160 0.0 0.0 0.00 0.00 0.00 88 1023.4
20190318044000 49 160 0.0 0.0 0.00 0.00 0.00 87 1023.8
20190318043501 49 160 0.0 0.0 0.00 0.00 0.00 85 1023.8
20190318042952 49 160 0.0 0.0 0.00 0.00 0.00 84 1024.1
20190318042447 49 160 0.0 0.0 0.00 0.00 0.00 83 1023.8
20190318041947 49 160 0.0 0.0 0.00 0.00 0.00 83 1023.8
20190318041438 49 160 0.0 0.0 0.00 0.00 0.00 82 1023.4
20190318040934 49 160 0.0 0.0 0.00 0.00 0.00 81 1023.4
20190318040433 49 160 0.0 0.0 0.00 0.00 0.00 81 1023.4
20190318035924 49 160 0.0 0.0 0.00 0.00 0.00 79 1023.8
20190318035421 50 160 0.0 0.0 0.00 0.00 0.00 79 1023.8
20190318034921 50 160 0.0 0.0 0.00 0.00 0.00 78 1023.8
20190318034413 50 160 0.0 0.0 0.00 0.00 0.00 74 1024.1
20190318033908 50 160 0.0 0.0 0.00 0.00 0.00 74 1024.1
20190318033407 50 160 0.0 0.0 0.00 0.00 0.00 72 1023.8
20190318032900 51 160 0.0 0.0 0.00 0.00 0.00 72 1023.8
20190318032356 51 160 0.0 0.0 0.00 0.00 0.00 71 1023.8
20190318031854 51 160 0.0 0.0 0.00 0.00 0.00 71 1023.8
20190318031348 51 160 0.0 0.0 0.00 0.00 0.00 71 1023.8
20190318030843 51 160 0.0 0.0 0.00 0.00 0.00 69 1023.8
20190318030342 51 161 0.0 0.0 0.00 0.00 0.00 68 1023.4
20190318025836 52 161 0.0 0.0 0.00 0.00 0.00 67 1023.4
20190318025331 52 161 0.0 0.0 0.00 0.00 0.00 67 1023.4
20190318024828 53 161 0.0 0.0 0.00 0.00 0.00 65 1023.4
20190318024322 53 161 0.0 0.0 0.00 0.00 0.00 65 1023.4
20190318023816 53 161 0.0 0.0 0.00 0.00 0.00 61 1023.4
20190318023315 54 161 0.0 0.0 0.00 0.00 0.00 60 1023.4
20190318022808 55 161 0.0 0.0 0.00 0.00 0.00 59 1023.4
20190318022304 55 161 0.0 0.0 0.00 0.00 0.00 58 1023.4
20190318021804 55 161 0.0 0.0 0.00 0.00 0.00 58 1023.4
20190318021256 55 161 0.0 0.0 0.00 0.00 0.00 54 1023.1
20190318020753 55 161 0.0 0.0 0.00 0.00 0.00 53 1023.1
20190318020255 55 161 0.0 0.0 0.00 0.00 0.00 51 1023.1
20190318015744 56 161 0.0 0.0 0.00 0.00 0.00 52 1023.1
20190318015239 56 161 0.0 0.0 0.00 0.00 0.00 49 1022.8
20190318014738 57 161 0.0 0.0 0.00 0.00 0.00 48 1022.8
20190318014231 57 161 0.0 0.0 0.00 0.00 0.00 45 1022.8
20190318013727 58 161 0.0 0.0 0.00 0.00 0.00 44 1023.1
20190318013227 58 161 0.0 0.0 0.00 0.00 0.00 42 1023.1
20190318012715 59 161 0.0 0.0 0.00 0.00 0.00 40 1022.8
20190318012210 59 161 0.0 0.0 0.00 0.00 0.00 37 1022.8
20190318011710 59 133 0.0 0.0 0.00 0.00 0.00 36 1022.4
20190318011202 60 133 0.0 2.0 0.00 0.00 0.00 36 1022.8
20190318010659 60 133 0.0 2.0 0.00 0.00 0.00 37 1022.8
20190318010203 60 136 0.0 2.0 0.00 0.00 0.00 40 1022.4
20190318005649 61 116 0.0 0.0 0.00 0.00 0.00 40 1022.4
20190318005144 61 116 0.0 0.0 0.00 0.00 0.00 37 1022.4
20190318004646 62 116 0.0 2.0 0.00 0.00 0.00 34 1022.4
20190318004137 62 116 0.0 2.0 0.00 0.00 0.00 34 1022.1
20190318003633 62 122 0.0 2.0 0.00 0.00 0.00 33 1022.4
20190318003132 63 103 0.0 2.0 0.00 0.00 0.00 32 1022.4
20190318002628 63 103 0.0 5.0 0.00 0.00 0.00 32 1022.1
20190318002121 63 100 1.0 5.0 0.00 0.00 0.00 30 1022.4
20190318002034 64 114 2.0 5.0 0.00 0.00 0.00 29 1022.4
20190318001922 64 107 2.0 5.0 0.00 0.00 0.00 30 1022.4
20190318001840 64 133 2.0 5.0 0.00 0.00 0.00 28 1022.4
20190318001832 64 98 2.0 5.0 0.00 0.00 0.00 29 1022.1
20190317235601 64 122 2.0 8.0 0.00 0.00 0.00 29 1022.4
20190317235058 64 126 3.0 8.0 0.00 0.00 0.00 28 1022.4
20190317234605 65 106 5.0 8.0 0.00 0.00 0.00 28 1022.1
20190317234105 65 14 3.0 5.0 0.00 0.00 0.00 28 1022.1
20190317233539 65 161 0.0 8.0 0.00 0.00 0.00 29 1022.4
20190317233024 65 107 0.0 5.0 0.00 0.00 0.00 29 1022.1
20190317232522 65 144 1.0 5.0 0.00 0.00 0.00 28 1022.1
20190317232055 65 96 2.0 5.0 0.00 0.00 0.00 28 1022.1
20190317231749 65 103 1.0 2.0 0.00 0.00 0.00 29 1021.8
20190317230457 65 118 2.0 5.0 0.00 0.00 0.00 28 1022.1
20190317225921 65 129 5.0 5.0 0.00 0.00 0.00 26 1021.8
20190317221229 67 131 1.0 5.0 0.00 0.00 0.00 24 1022.1
20190317220728 67 151 0.0 2.0 0.00 0.00 0.00 23 1022.1
20190317220218 67 203 0.0 8.0 0.00 0.00 0.00 24 1022.1
20190317215713 67 130 1.0 8.0 0.00 0.00 0.00 25 1022.4
20190317215211 68 100 3.0 8.0 0.00 0.00 0.00 25 1022.1
20190317214702 68 113 2.0 10.0 0.00 0.00 0.00 26 1021.8
20190317214158 68 95 4.0 10.0 0.00 0.00 0.00 25 1021.8
20190317213656 69 107 2.0 8.0 0.00 0.00 0.00 25 1022.1
20190317213149 69 95 6.0 8.0 0.00 0.00 0.00 23 1022.1
20190317212645 68 113 2.0 5.0 0.00 0.00 0.00 24 1022.1
20190317212143 69 141 0.0 2.0 0.00 0.00 0.00 24 1022.4
20190317211637 68 95 0.0 8.0 0.00 0.00 0.00 25 1022.4
20190317211132 69 154 0.0 8.0 0.00 0.00 0.00 24 1022.4
20190317210630 69 182 0.0 5.0 0.00 0.00 0.00 22 1022.4
20190317210122 68 164 0.0 8.0 0.00 0.00 0.00 24 1022.4
20190317205616 68 104 3.0 8.0 0.00 0.00 0.00 23 1022.4
20190317205115 68 218 1.0 8.0 0.00 0.00 0.00 24 1022.4
20190317204606 67 142 0.0 8.0 0.00 0.00 0.00 24 1022.4
20190317204102 67 54 1.0 2.0 0.00 0.00 0.00 23 1022.4
20190317203559 67 107 0.0 8.0 0.00 0.00 0.00 24 1022.8
20190317203051 67 133 3.0 8.0 0.00 0.00 0.00 26 1022.8
20190317202547 67 101 5.0 8.0 0.00 0.00 0.00 24 1022.8
20190317202046 66 218 0.0 10.0 0.00 0.00 0.00 25 1022.8